Theta_e
302 302 302 301 301 301 301 301 301 302 302 303 306 306 307 310 309 310 309 309 309 309 309 308 309 309 310 310 309 307 304 303 304 303 304 305 306 307 308 307 309 310 309 311 311
302 302 301 301 301 301 301 301 302 302 302 303 306 306 306 308 309 309 309 309 309 309 309 308 309 309 309 308 308 303 303 304 304 304 304 306 307 307 309 308 310 308 310 311 311
302 302 301 301 301 301 301 301 301 302 302 303 306 307 307 309 310 309 309 308 309 309 309 308 308 309 307 307 307 305 305 305 307 306 306 306 307 309 308 308 309 308 308 312 311
302 302 301 301 301 301 301 301 301 302 303 303 305 307 308 310 312 309 309 308 308 309 308 308 307 308 305 305 306 306 306 307 308 308 307 307 307 308 309 309 309 306 309 311 311
302 301 301 301 301 300 301 301 301 302 303 304 305 306 307 309 309 309 309 308 308 309 308 309 309 307 304 306 307 306 306 307 308 308 308 309 308 308 309 309 306 307 311 312 311
306 302 301 301 301 300 300 301 301 302 303 305 306 306 309 308 309 309 309 308 308 308 308 308 309 308 306 305 305 307 307 308 309 308 308 308 309 308 308 309 305 309 312 313 313
308 304 301 301 300 300 300 300 301 303 303 306 307 307 309 308 308 309 308 308 308 309 310 309 309 309 308 306 307 306 307 307 307 308 308 308 308 308 307 308 304 307 311 312 313
311 308 302 300 300 300 300 300 301 303 304 305 306 306 306 307 308 308 309 308 309 310 310 309 309 309 307 307 307 305 304 309 307 307 308 306 308 307 309 307 304 305 307 311 313
312 310 306 301 300 300 300 300 302 303 304 304 305 306 306 306 307 308 308 309 309 311 311 311 311 309 308 304 302 300 305 304 307 307 307 306 308 307 309 308 304 303 305 307 311
312 311 309 303 300 300 299 300 302 303 304 304 305 306 306 306 307 308 308 309 311 311 311 308 306 302 301 302 302 301 303 305 305 306 306 307 308 305 309 309 304 302 303 304 308
313 312 310 305 300 300 299 300 303 304 304 306 306 306 306 306 307 308 308 309 310 310 307 304 302 302 305 303 299 298 301 301 304 306 306 307 305 306 308 308 304 302 302 303 305
315 312 311 305 300 299 299 302 303 304 304 304 305 306 306 307 307 308 309 309 308 307 304 303 304 304 302 304 305 303 303 301 302 302 305 300 305 305 306 308 305 302 302 302 302
320 314 312 304 300 299 299 301 303 305 304 303 304 305 305 307 306 307 310 308 307 307 303 302 305 304 307 306 307 306 305 304 303 304 305 302 304 304 306 308 308 305 302 301 301
319 318 314 306 301 300 299 300 302 304 305 306 302 304 304 307 305 307 309 308 306 304 304 305 305 307 307 305 305 308 305 305 308 305 304 300 303 301 304 305 306 308 302 301 300
319 316 311 304 300 300 299 300 302 307 319 304 301 303 305 304 304 306 308 308 305 305 302 305 306 307 308 306 304 308 305 307 308 307 303 301 301 302 303 306 306 305 302 300 300
319 316 311 307 299 299 299 300 303 312 314 301 301 303 303 304 305 306 307 307 305 303 302 304 305 304 304 303 303 303 305 304 301 302 303 303 300 300 303 305 307 304 302 301 299
319 317 315 310 303 299 300 302 309 311 302 300 301 302 303 303 304 304 305 304 302 303 301 303 304 303 303 304 304 305 305 304 305 303 304 301 302 301 299 303 306 303 302 301 300
317 316 312 308 303 300 301 304 307 301 300 299 302 301 304 303 303 303 304 303 302 300 298 302 303 303 303 304 305 303 302 304 305 304 302 301 302 303 298 305 308 306 303 302 301
316 312 309 309 300 301 306 303 305 300 302 302 302 302 302 302 303 303 302 302 302 299 303 302 304 302 303 303 303 305 302 300 302 292 301 302 301 300 305 305 305 305 303 303 301
311 309 308 306 300 300 302 306 299 302 300 301 306 302 301 302 304 302 301 301 302 300 301 301 304 302 303 303 303 303 300 305 301 301 303 303 302 304 302 303 303 303 304 304 302
310 306 305 303 299 303 303 299 297 300 302 302 302 298 301 302 301 302 301 302 300 300 301 299 302 301 302 302 303 304 303 300 301 301 305 306 305 298 299 300 302 305 307 307 304
307 302 301 301 299 298 299 292 299 300 300 299 300 300 301 299 301 300 302 300 302 301 303 300 301 301 302 301 301 302 301 301 304 305 299 302 305 299 297 300 301 303 306 308 307
304 298 299 300 303 298 291 290 296 298 299 300 300 300 299 300 301 302 300 299 301 301 302 301 298 297 300 301 299 302 302 300 299 300 302 305 306 298 298 300 303 304 305 306 308
302 298 298 298 299 298 293 297 296 297 299 299 299 299 300 299 296 299 300 299 301 301 303 302 300 303 305 305 301 302 301 300 302 302 302 302 305 302 299 299 301 303 305 306 309
302 298 298 299 300 298 299 297 300 297 297 299 299 301 301 301 300 298 298 300 301 303 301 299 298 297 298 297 300 301 301 301 301 302 307 306 301 302 300 298 301 304 305 306 308
300 299 298 299 301 297 299 299 300 299 298 299 300 300 300 302 303 302 300 301 303 300 300 297 294 291 293 293 296 302 301 301 301 302 299 300 301 299 303 303 302 303 302 304 307
305 304 303 301 300 298 299 300 299 300 298 300 300 300 301 301 299 298 299 300 301 301 297 294 290 295 298 287 293 301 299 301 301 300 299 303 303 300 301 299 301 303 303 304 305
Wind_Speed
10 8 7 7 6 5 5 4 4 4 4 4 4 2 1 4 11 5 7 7 5 4 4 4 5 7 6 7 6 4 4 2 3 4 4 1 1 1 3 4 6 7 15 25 30
11 10 7 6 6 5 5 4 4 3 3 3 3 3 1 1 2 9 8 8 5 3 3 3 6 6 6 5 6 6 4 3 2 4 3 3 1 2 3 5 4 18 23 27 27
13 11 9 6 6 6 4 4 4 3 3 2 2 2 2 1 1 6 7 6 5 3 3 5 7 6 8 7 8 5 4 5 2 3 4 3 1 1 5 2 7 22 30 30 30
13 12 10 8 6 6 5 4 3 3 2 2 1 1 1 1 2 3 5 6 4 3 2 4 4 5 6 5 4 7 4 3 5 4 3 2 1 0 1 4 15 20 21 25 27
12 12 11 10 8 6 6 5 3 3 2 2 2 1 0 2 3 3 5 6 5 3 4 6 7 7 6 8 9 8 4 7 7 6 5 2 0 1 3 12 16 19 18 22 23
13 12 12 11 10 8 6 5 4 3 2 1 1 1 1 2 1 2 5 6 8 5 4 4 7 16 14 5 5 8 11 8 4 3 2 2 0 3 4 15 18 19 18 21 25
14 14 12 12 11 10 8 6 5 4 3 1 0 0 0 3 3 3 4 7 9 11 15 13 11 3 10 7 12 10 5 2 6 3 1 0 0 2 9 14 17 20 19 22 24
15 15 13 12 11 11 9 6 5 5 3 3 2 1 1 4 3 4 5 8 12 14 15 17 16 17 7 19 6 4 4 2 3 6 0 1 3 1 8 15 20 22 23 23 23
17 15 13 11 12 11 9 7 6 4 4 3 3 2 1 4 4 5 6 8 11 11 11 8 8 9 6 5 4 6 2 2 2 2 3 2 3 2 7 12 18 20 23 24 25
20 17 13 11 12 11 9 7 5 4 3 3 4 1 4 4 5 6 8 9 6 8 5 2 5 4 4 4 4 5 4 0 2 3 3 3 4 5 3 8 14 16 19 22 23
20 17 14 11 13 11 10 5 4 2 5 3 2 2 6 6 7 6 8 9 8 4 3 5 6 3 2 1 4 7 5 3 3 1 3 3 5 8 4 6 11 14 17 19 21
22 19 15 10 13 12 11 6 4 2 1 6 6 4 6 8 3 7 10 4 3 4 1 6 3 3 5 3 6 5 4 1 4 2 2 3 7 6 5 4 6 11 14 16 21
28 22 16 9 12 14 14 12 4 2 2 3 7 6 5 7 3 7 8 7 5 4 3 6 4 9 3 2 4 3 5 2 3 3 2 4 6 5 2 4 6 7 9 10 16
31 24 20 12 11 15 15 15 5 3 5 3 5 5 8 6 1 5 8 4 4 5 5 6 5 3 3 2 2 3 2 3 3 2 2 3 3 5 4 7 6 8 6 9 12
33 31 24 16 9 19 14 13 9 7 1 2 4 6 8 5 8 2 6 4 5 5 5 3 6 4 2 2 2 4 4 4 3 3 2 4 3 6 4 5 5 4 4 6 10
35 33 27 23 16 14 15 18 13 5 9 3 4 5 5 2 2 6 4 6 8 5 6 3 2 1 3 2 2 6 4 4 3 2 3 1 3 4 3 4 4 3 2 5 6
35 37 34 27 25 21 18 20 5 4 3 4 5 5 3 5 3 2 5 6 5 6 1 3 0 0 2 5 2 2 4 3 4 3 4 1 1 7 5 6 7 6 4 4 5
35 39 39 32 29 26 26 4 4 4 6 3 3 4 6 6 1 2 5 3 3 3 4 6 3 6 3 2 5 5 4 4 5 3 3 2 5 4 4 3 8 7 7 6 5
41 43 40 31 30 33 27 4 12 8 7 9 4 4 3 3 6 4 7 6 9 9 6 5 1 2 1 1 1 4 3 3 7 3 3 2 6 5 2 6 8 11 10 10 7
53 47 41 38 37 34 12 15 7 5 7 3 8 5 9 8 6 7 9 5 6 9 2 7 5 1 0 2 2 3 4 3 3 2 3 4 4 5 6 8 6 10 17 14 10
44 18 34 42 34 27 10 8 5 7 8 7 6 4 5 8 6 6 9 1 4 5 2 6 4 2 1 6 7 2 2 4 3 3 4 1 5 6 7 8 10 20 21 17 14
29 4 37 45 10 6 7 7 7 6 7 6 4 4 7 6 6 5 10 3 13 14 9 6 6 4 3 1 1 2 4 5 4 5 2 1 5 3 8 10 13 12 18 20 18
27 9 37 35 8 8 1 4 6 5 6 7 5 3 2 6 4 5 5 1 11 8 9 8 1 4 6 4 3 5 5 3 3 3 5 5 5 2 4 6 11 11 13 18 19
16 5 8 16 6 9 8 10 6 5 5 5 4 4 4 3 3 6 4 1 6 4 1 5 3 6 7 5 5 6 7 6 5 4 5 6 4 5 7 9 12 15 14 18 23
13 6 12 9 12 9 18 12 18 7 4 10 2 5 6 4 2 3 2 3 3 4 1 4 5 3 3 3 0 5 7 12 9 5 6 3 9 7 9 11 18 15 12 17 22
19 10 14 6 20 15 20 15 25 12 11 7 5 8 5 4 4 9 8 5 6 3 5 0 3 2 2 4 4 3 5 10 6 3 8 2 8 9 8 8 11 17 17 24 24
20 24 30 18 14 12 17 19 23 19 5 6 10 6 5 1 2 2 6 10 8 10 7 6 7 3 4 2 2 5 11 11 5 6 8 8 10 4 5 8 14 14 15 21 21
Wind_Direction
256 259 275 291 302 311 321 330 340 345 346 352 358 11 102 71 47 69 53 46 50 64 70 77 119 118 118 80 68 91 68 108 153 159 178 253 134 23 333 308 322 315 317 329 330
257 258 257 276 289 297 311 318 325 338 342 345 0 21 46 67 71 55 50 34 30 55 84 98 134 127 79 59 32 62 81 129 194 169 170 155 125 339 0 336 314 321 340 337 333
261 259 256 252 273 285 290 298 307 316 330 336 351 36 29 50 117 31 35 26 26 62 87 107 119 105 73 47 23 43 113 160 153 144 125 123 95 38 342 324 327 320 330 339 341
263 261 255 251 249 266 277 278 286 297 312 318 312 19 24 62 192 38 28 29 26 66 107 136 129 80 70 58 46 96 85 128 138 141 117 145 125 218 15 315 328 327 335 343 341
267 262 258 251 251 248 256 263 265 281 294 305 308 303 293 100 97 70 31 30 35 93 105 106 120 105 103 109 70 77 125 88 109 107 82 58 58 325 288 332 336 337 350 351 349
282 262 257 252 251 247 243 251 252 259 270 289 321 294 189 141 139 85 55 46 60 86 123 138 128 114 91 72 72 119 111 119 110 136 98 59 233 338 334 332 344 349 357 2 360
279 276 257 251 253 247 242 236 245 246 240 220 251 20 61 151 163 130 88 74 89 95 101 103 120 123 109 96 112 117 93 108 31 353 118 331 169 287 337 336 339 354 359 4 6
268 276 264 250 247 247 242 238 237 238 230 225 238 266 192 156 144 133 116 95 101 99 100 100 101 95 89 121 67 67 57 86 329 7 267 13 271 239 341 342 345 353 1 359 2
264 264 264 252 244 240 240 236 237 232 228 218 228 206 200 173 158 140 138 121 114 105 101 102 97 88 103 90 45 13 163 78 300 32 312 11 262 236 350 343 340 354 1 1 360
260 261 261 251 240 234 230 226 229 232 210 224 215 210 191 189 150 140 143 141 125 119 100 84 69 80 48 72 199 187 122 96 210 319 14 341 263 290 348 336 335 346 357 4 4
252 253 257 250 235 226 218 188 208 217 204 190 204 175 156 158 150 145 149 138 131 97 67 31 69 99 128 135 92 108 99 122 256 328 4 323 282 281 294 311 326 345 356 1 2
243 247 248 242 228 221 208 192 184 156 257 216 210 194 177 163 138 151 153 148 128 101 70 30 100 171 128 95 94 79 101 297 295 297 113 335 291 275 266 267 301 330 344 352 358
242 231 233 231 221 218 206 199 146 190 292 228 203 190 187 178 174 159 158 132 100 75 18 123 166 152 109 123 97 58 122 186 187 360 270 319 307 322 311 273 278 302 331 356 1
229 226 225 213 217 215 205 200 166 99 50 232 208 200 182 167 134 160 148 135 55 136 113 101 155 158 128 125 144 111 157 122 82 71 228 359 268 294 309 307 277 287 331 3 9
227 225 208 195 207 199 199 178 159 110 289 124 166 164 156 178 136 136 136 105 125 126 124 168 156 155 161 177 194 160 148 132 99 80 327 2 56 272 9 316 286 284 328 354 2
230 218 200 198 187 189 171 154 140 63 240 173 147 170 122 127 127 132 122 96 120 87 45 106 134 107 144 81 56 131 89 53 62 76 21 291 125 280 220 208 297 289 298 330 355
229 220 222 199 186 164 159 145 67 188 9 222 192 167 163 155 127 153 148 138 153 100 74 24 37 327 146 91 27 99 102 17 2 10 213 148 357 243 226 195 194 261 273 281 324
231 216 206 199 182 160 157 72 148 215 214 150 101 116 181 164 120 131 123 153 246 96 118 148 248 172 176 213 175 180 179 150 196 193 247 94 241 256 234 241 213 226 240 257 284
241 195 193 196 171 177 166 198 202 195 165 147 99 122 214 203 131 156 184 196 199 193 134 138 13 46 65 136 95 177 189 147 106 48 39 228 279 284 240 258 226 229 232 237 251
187 179 186 176 169 164 143 205 208 186 130 176 170 163 182 187 136 175 172 203 193 192 227 192 103 50 312 122 36 189 155 84 8 122 271 272 269 238 215 238 225 240 233 232 234
182 159 181 172 167 158 194 214 209 192 154 157 183 146 183 175 154 190 191 235 146 170 122 149 103 242 116 202 180 149 219 52 114 137 176 232 259 213 188 191 202 219 225 226 230
166 124 161 167 143 179 205 188 172 168 179 209 154 123 174 158 151 198 196 212 164 155 162 201 121 139 193 242 256 223 213 175 128 201 168 161 275 173 194 194 194 211 217 211 208
149 124 160 172 166 191 241 232 186 146 178 183 184 184 184 156 134 187 197 130 159 170 161 183 257 80 352 352 353 227 197 179 106 85 197 138 260 179 252 247 229 218 213 209 212
144 123 173 190 196 162 158 193 187 207 153 169 138 136 128 104 0 166 140 159 171 203 193 122 134 156 179 183 133 188 186 182 151 129 171 224 266 250 220 224 229 216 206 204 205
151 171 175 179 205 185 183 163 187 171 226 182 170 208 146 122 97 159 121 113 71 176 110 134 154 87 74 24 313 170 181 181 195 182 171 239 205 234 222 211 209 209 210 208 209
146 152 167 179 163 173 185 192 191 184 159 214 178 170 137 162 196 187 143 185 181 141 164 213 180 120 357 348 4 232 201 202 224 236 281 251 276 219 209 194 218 234 239 219 213
180 163 151 161 166 165 199 194 201 184 209 190 152 106 132 250 18 61 121 138 148 149 160 144 138 118 237 350 354 328 209 187 193 215 152 196 228 186 190 202 217 206 210 216 225